Location: Maiden
(35.5760°N, 81.2120°W)
Time: 02:29:37
(UTC-05:00)

OTV 5 (USA 277) - Visible Passes

Search period start: 21 February 2018 00:00
Search period end: 03 March 2018 00:00
Orbit: 404 x 417 km, 43.0° (Epoch: 07 September)

Date Brightness Start Highest point End Pass type
(mag) Time Alt. Az. Time Alt. Az. Time Alt. Az.
21 Feb ? 04:34:43 10° E 04:34:43 10° E 04:34:48 10° E visible
21 Feb ? 06:07:29 20° WSW 06:09:35 68° NNW 06:12:52 10° ENE visible
22 Feb ? 05:19:05 57° E 05:19:05 57° E 05:21:49 10° ENE visible
23 Feb ? 04:30:34 11° ENE 04:30:34 11° ENE 04:30:41 10° ENE visible
23 Feb ? 06:03:20 21° WNW 06:04:53 34° NNW 06:07:56 10° NE visible
24 Feb ? 05:14:44 33° NNE 05:14:44 33° NNE 05:16:56 10° NE visible
25 Feb ? 05:58:49 17° NW 06:00:19 24° N 06:03:03 10° NE visible
26 Feb ? 05:10:07 23° NNE 05:10:07 23° NNE 05:12:00 10° NE visible
27 Feb ? 05:54:08 15° NW 05:55:50 21° N 05:58:26 10° NE visible
28 Feb ? 05:05:23 20° NNE 05:05:23 20° NNE 05:07:14 10° NE visible
01 Mar ? 05:49:24 15° NW 05:51:19 25° N 05:54:06 10° ENE visible
02 Mar ? 05:00:41 21° NNE 05:00:41 21° NNE 05:02:46 10° ENE visible
